When you browse on this site, cookies collect data to enhance your experience and personalize the content and advertising you see.
Visit our Privacy Policy to learn more. By continuing to use the site, you agree to this use of cookies and data.
  • en Suisse
  • Liste des pays
  • À 7 jours
  • Température de l'eau
  • Carte météo
  • Widgets météo
  • user-avatar
    Se connecter

    Météo par heure à Shusha

    Ce jour, 30 Mai, Samedi

    Heure Température Précipitation Vent Pression Humidité
    00:00 +18°C° 0 mm 2 m/s 656 mmHg 57%
    01:00 +18°C° 0 mm 2 m/s 656 mmHg 54%
    02:00 +17°C° 0 mm 2 m/s 656 mmHg 52%
    03:00 +17°C° 0 mm 2 m/s 656 mmHg 48%
    04:00 +18°C° 0 mm 2 m/s 656 mmHg 50%
    05:00 +19°C° 0 mm 1 m/s 657 mmHg 53%
    06:00 +20°C° 0 mm 1 m/s 657 mmHg 56%
    07:00 +21°C° 0 mm 2 m/s 658 mmHg 53%
    08:00 +23°C° 0 mm 2 m/s 658 mmHg 49%
    09:00 +25°C° 0 mm 2 m/s 658 mmHg 46%
    10:00 +26°C° 0 mm 2 m/s 659 mmHg 46%
    11:00 +26°C° 0 mm 3 m/s 659 mmHg 46%
    12:00 +27°C° 0 mm 3 m/s 659 mmHg 46%
    13:00 +27°C° 0.1 mm 3 m/s 659 mmHg 48%
    14:00 +27°C° 0.1 mm 3 m/s 658 mmHg 49%
    15:00 +27°C° 0.1 mm 4 m/s 658 mmHg 51%
    16:00 +25°C° 0.1 mm 3 m/s 658 mmHg 57%
    17:00 +24°C° 0.1 mm 3 m/s 658 mmHg 63%
    18:00 +23°C° 0.1 mm 2 m/s 658 mmHg 70%
    19:00 +20°C° 0.2 mm 2 m/s 658 mmHg 74%
    20:00 +18°C° 0.2 mm 2 m/s 658 mmHg 79%
    21:00 +16°C° 0.2 mm 1 m/s 658 mmHg 84%
    22:00 +16°C° 0 mm 1 m/s 658 mmHg 83%
    23:00 +16°C° 0 mm 1 m/s 658 mmHg 82%

    Demain, 31 Mai, Dimanche

    Heure Température Précipitation Vent Pression Humidité
    00:00 +15°C° 0 mm 1 m/s 658 mmHg 81%
    01:00 +15°C° 0 mm 1 m/s 658 mmHg 83%
    02:00 +14°C° 0 mm 1 m/s 658 mmHg 86%
    03:00 +13°C° 0 mm 1 m/s 658 mmHg 88%
    04:00 +14°C° 0 mm 1 m/s 658 mmHg 86%
    05:00 +14°C° 0 mm 1 m/s 659 mmHg 83%
    06:00 +15°C° 0 mm 1 m/s 659 mmHg 81%
    07:00 +16°C° 0 mm 1 m/s 660 mmHg 76%
    08:00 +18°C° 0 mm 2 m/s 660 mmHg 70%
    09:00 +19°C° 0 mm 2 m/s 660 mmHg 65%
    10:00 +20°C° 0 mm 2 m/s 660 mmHg 63%
    11:00 +20°C° 0 mm 2 m/s 660 mmHg 61%
    12:00 +21°C° 0 mm 2 m/s 660 mmHg 60%
    13:00 +21°C° 0 mm 2 m/s 660 mmHg 59%
    14:00 +23°C° 0 mm 2 m/s 660 mmHg 58%
    15:00 +23°C° 0 mm 2 m/s 659 mmHg 58%
    16:00 +23°C° 0 mm 2 m/s 659 mmHg 60%
    17:00 +21°C° 0 mm 2 m/s 659 mmHg 62%
    18:00 +21°C° 0 mm 2 m/s 659 mmHg 65%
    19:00 +20°C° 0 mm 1 m/s 659 mmHg 70%
    20:00 +18°C° 0 mm 1 m/s 659 mmHg 74%
    21:00 +16°C° 0 mm 1 m/s 659 mmHg 79%
    22:00 +15°C° 0 mm 1 m/s 659 mmHg 79%
    23:00 +15°C° 0 mm 1 m/s 658 mmHg 79%

    Après-demain, 1 Juin, Lundi

    Heure Température Précipitation Vent Pression Humidité
    00:00 +15°C° 0 mm 1 m/s 658 mmHg 79%
    01:00 +14°C° 0 mm 1 m/s 658 mmHg 80%
    02:00 +14°C° 0 mm 1 m/s 658 mmHg 81%
    03:00 +14°C° 0 mm 1 m/s 658 mmHg 81%
    04:00 +15°C° 0 mm 1 m/s 658 mmHg 79%
    05:00 +15°C° 0 mm 1 m/s 658 mmHg 77%
    06:00 +16°C° 0 mm 1 m/s 659 mmHg 75%
    07:00 +19°C° 0 mm 1 m/s 659 mmHg 71%
    08:00 +20°C° 0 mm 1 m/s 659 mmHg 66%
    09:00 +20°C° 0 mm 2 m/s 659 mmHg 62%
    10:00 +21°C° 0 mm 2 m/s 659 mmHg 60%
    11:00 +23°C° 0 mm 2 m/s 659 mmHg 58%
    12:00 +24°C° 0 mm 3 m/s 659 mmHg 56%
    13:00 +24°C° 0 mm 3 m/s 659 mmHg 55%
    14:00 +25°C° 0 mm 2 m/s 659 mmHg 55%
    15:00 +25°C° 0 mm 2 m/s 658 mmHg 54%
    16:00 +24°C° 0 mm 2 m/s 658 mmHg 58%
    17:00 +23°C° 0 mm 2 m/s 658 mmHg 62%
    18:00 +23°C° 0 mm 1 m/s 657 mmHg 66%
    19:00 +21°C° 0 mm 1 m/s 657 mmHg 70%
    20:00 +19°C° 0 mm 1 m/s 657 mmHg 74%
    21:00 +18°C° 0 mm 1 m/s 657 mmHg 78%
    22:00 +16°C° 0 mm 1 m/s 657 mmHg 76%
    23:00 +16°C° 0 mm 1 m/s 657 mmHg 75%

    2 Juin, Mardi

    Heure Température Précipitation Vent Pression Humidité
    00:00 +16°C° 0 mm 2 m/s 656 mmHg 74%
    01:00 +16°C° 0 mm 2 m/s 656 mmHg 71%
    02:00 +16°C° 0 mm 2 m/s 656 mmHg 69%
    03:00 +16°C° 0 mm 2 m/s 656 mmHg 67%
    04:00 +16°C° 0 mm 2 m/s 656 mmHg 65%
    05:00 +17°C° 0 mm 2 m/s 657 mmHg 63%
    06:00 +18°C° 0 mm 2 m/s 657 mmHg 60%
    07:00 +21°C° 0 mm 1 m/s 658 mmHg 55%
    08:00 +23°C° 0 mm 1 m/s 658 mmHg 49%
    09:00 +26°C° 0 mm 1 m/s 658 mmHg 43%
    10:00 +27°C° 0 mm 2 m/s 658 mmHg 40%
    11:00 +28°C° 0 mm 2 m/s 658 mmHg 38%
    12:00 +29°C° 0 mm 3 m/s 658 mmHg 36%
    13:00 +29°C° 0 mm 3 m/s 658 mmHg 37%
    14:00 +29°C° 0 mm 3 m/s 658 mmHg 38%
    15:00 +29°C° 0 mm 3 m/s 657 mmHg 39%
    16:00 +28°C° 0.2 mm 3 m/s 657 mmHg 46%
    17:00 +27°C° 0.2 mm 2 m/s 657 mmHg 53%
    18:00 +25°C° 0.2 mm 2 m/s 656 mmHg 59%
    19:00 +24°C° 0.2 mm 2 m/s 656 mmHg 63%
    20:00 +21°C° 0.2 mm 2 m/s 656 mmHg 66%
    21:00 +19°C° 0.2 mm 2 m/s 656 mmHg 70%
    22:00 +19°C° 0 mm 2 m/s 656 mmHg 69%
    23:00 +18°C° 0 mm 2 m/s 656 mmHg 67%

    3 Juin, Mercredi

    Heure Température Précipitation Vent Pression Humidité
    00:00 +18°C° 0 mm 2 m/s 655 mmHg 66%
    01:00 +18°C° 0 mm 2 m/s 655 mmHg 63%
    02:00 +17°C° 0 mm 2 m/s 655 mmHg 61%
    03:00 +17°C° 0 mm 2 m/s 655 mmHg 59%
    04:00 +19°C° 0 mm 1 m/s 655 mmHg 59%
    05:00 +20°C° 0 mm 1 m/s 656 mmHg 60%
    06:00 +21°C° 0 mm 1 m/s 656 mmHg 60%
    07:00 +22°C° 0 mm 1 m/s 657 mmHg 57%
    08:00 +23°C° 0 mm 1 m/s 657 mmHg 53%
    09:00 +24°C° 0 mm 2 m/s 657 mmHg 50%
    10:00 +25°C° 0 mm 2 m/s 657 mmHg 49%
    11:00 +26°C° 0 mm 2 m/s 657 mmHg 47%
    12:00 +27°C° 0 mm 2 m/s 658 mmHg 46%
    13:00 +28°C° 0 mm 2 m/s 657 mmHg 45%
    14:00 +28°C° 0 mm 2 m/s 657 mmHg 44%
    15:00 +29°C° 0 mm 2 m/s 657 mmHg 42%
    16:00 +28°C° 0.2 mm 2 m/s 657 mmHg 49%
    17:00 +27°C° 0.2 mm 2 m/s 657 mmHg 56%
    18:00 +26°C° 0.2 mm 1 m/s 657 mmHg 62%
    19:00 +24°C° 0.3 mm 2 m/s 657 mmHg 64%
    20:00 +21°C° 0.3 mm 2 m/s 657 mmHg 65%
    21:00 +20°C° 0.3 mm 2 m/s 657 mmHg 66%
    22:00 +19°C° 0.2 mm 2 m/s 657 mmHg 66%
    23:00 +18°C° 0.2 mm 2 m/s 657 mmHg 66%

    4 Juin, Jeudi

    Heure Température Précipitation Vent Pression Humidité
    00:00 +18°C° 0.2 mm 2 m/s 657 mmHg 66%
    01:00 +18°C° 0 mm 2 m/s 656 mmHg 66%
    02:00 +18°C° 0 mm 2 m/s 656 mmHg 67%
    03:00 +17°C° 0 mm 2 m/s 656 mmHg 67%
    04:00 +18°C° 0 mm 2 m/s 656 mmHg 66%
    05:00 +19°C° 0 mm 2 m/s 656 mmHg 65%
    06:00 +21°C° 0 mm 1 m/s 656 mmHg 64%
    07:00 +23°C° 0 mm 1 m/s 657 mmHg 58%
    08:00 +24°C° 0 mm 1 m/s 657 mmHg 52%
    09:00 +26°C° 0 mm 2 m/s 657 mmHg 46%
    10:00 +27°C° 0 mm 2 m/s 657 mmHg 43%
    11:00 +28°C° 0 mm 2 m/s 657 mmHg 40%
    12:00 +30°C° 0 mm 2 m/s 658 mmHg 37%
    13:00 +30°C° 0 mm 3 m/s 657 mmHg 38%
    14:00 +30°C° 0 mm 3 m/s 657 mmHg 38%
    15:00 +30°C° 0 mm 3 m/s 657 mmHg 39%
    16:00 +29°C° 0 mm 3 m/s 657 mmHg 45%
    17:00 +28°C° 0 mm 3 m/s 657 mmHg 51%
    18:00 +26°C° 0 mm 2 m/s 657 mmHg 58%
    19:00 +24°C° 0 mm 2 m/s 657 mmHg 63%
    20:00 +21°C° 0 mm 2 m/s 657 mmHg 69%
    21:00 +19°C° 0 mm 2 m/s 657 mmHg 74%
    22:00 +19°C° 0 mm 1 m/s 657 mmHg 76%
    23:00 +18°C° 0 mm 1 m/s 657 mmHg 79%
    Voir plus